FENGYUN 1C DEB

Satellite information

Favourite Embed

Satellite Type and Status

DEBRISIN ORBIT

Key statistics

Satellite FENGYUN 1C DEB at a glance.

Uptime

9555

Days in orbit

Revolutions

≈ 14.2

Per day

Orbit

SSO

Sun Synchronous Orbit

Inclination

99.1

Latest

Satellite identification and parameters

Extended collection of information and parameters for FENGYUN 1C DEB.

Object identification

Identified? True

Debris? True

Object name: FENGYUN 1C DEB

International designator: 1999-025EYQ

Object number (NORAD): 43359

Object ID (CCSDS): 43359

Country: PEOPLES REPUBLIC OF CHINA (PRC)

Current information (Y/N): Y

RCS size: SMALL

Orbital parameters

Period: 101.313 minutes

Inclination: 99.0594 deg

SMA: 7198.968 km

Apoapsis: 878.517 km

Periapsis: 763.149 km

RAAN: 262.8805 deg

Eccentricy: 0.0080128

Argument of periapsis: 111.9248 deg

Mean anomaly: 249.047 deg

Mean motion: 14.21338014 rev/day

Mean motion (dot): 0.00003605 rev/day2

B* drag term: 0.001619 1/REarth

Two-line elements (TLE)

Creation date: July 6, 2025, 6:05 p.m.

Reference frame: TEME

Reference center: EARTH

Epoch: July 6, 2025, 4 a.m. UTC

TLE line 0: 0 FENGYUN 1C DEB

TLE line 1: 1 43359U 99025EYQ 25187.16693405 .00003605 00000-0 16190-2 0 9999

TLE line 2: 2 43359 99.0594 262.8805 0080128 111.9248 249.0470 14.21338014454813

Live tracking on map

Real-time ground track for satellite FENGYUN 1C DEB.

In-orbit conjunctions

A list of the most updated potential collisions computed for object FENGYUN 1C DEB.

Target Orbit TCA Probability of collision Miss distance Type
SL-8 R/B LEO 2024-11-13 00:09:11 0.0001028504 544.0 (m) ROCKET BODY
ARIANE 1 DEB MEO 2024-11-09 19:45:51 0.0004539827 382.0 (m) DEBRIS

Associated space launch

Chinese polar orbiting meteorological satellite

FENGYUN 1C DEB was lifted into orbit during the mission ‘Long March 4B | Feng Yun 1C’, on board a Long March 4B space rocket.

The launch took place on May 10, 1999, 1:33 a.m. from Launch Complex 7.

For more information about the launch, click the button.

Launch to space Long March 4B | Feng Yun 1C
Long March 4B | Feng Yun 1C

Agency: N/A

Status: Launch Successful

Launch date: May 10, 1999, 1:33 a.m. UTC

Rocket: Long March 4B

Launch pad: Launch Complex 7

Location: Taiyuan Satellite Launch Center, People's Republic of China

...

Latest news about this satellite

There are no fresh news available about this satellite. Check back as we update our databases every day.


Newsletter sign-up

Weekly statistics, charts and insights to help you stay on top of the space industry.